TimeMDT,TemperatureF,Dew PointF,Humidity,Sea Level PressureIn,VisibilityMPH,Wind Direction,Wind SpeedMPH,Gust SpeedMPH,PrecipitationIn,Events,Conditions,WindDirDegrees,DateUTC
12:54 AM,35.1,25.0,67,30.06,10.0,ENE,5.8,-,N/A,,Clear,70,2012-10-10 06:54:00
1:54 AM,36.0,25.0,64,30.05,10.0,ENE,3.5,-,N/A,,Clear,60,2012-10-10 07:54:00
2:54 AM,36.0,25.0,64,30.05,10.0,ENE,3.5,-,N/A,,Clear,70,2012-10-10 08:54:00
3:54 AM,34.0,23.0,64,30.04,10.0,South,4.6,-,N/A,,Clear,170,2012-10-10 09:54:00
4:54 AM,30.9,24.1,76,30.05,10.0,Calm,Calm,-,N/A,,Clear,0,2012-10-10 10:54:00
5:54 AM,30.9,21.0,67,30.06,10.0,Calm,Calm,-,N/A,,Clear,0,2012-10-10 11:54:00
6:54 AM,28.9,19.0,67,30.10,10.0,South,4.6,-,N/A,,Clear,180,2012-10-10 12:54:00
7:54 AM,30.0,19.9,66,30.13,10.0,Calm,Calm,-,N/A,,Clear,0,2012-10-10 13:54:00
8:54 AM,35.1,23.0,61,30.15,10.0,Calm,Calm,-,N/A,,Clear,0,2012-10-10 14:54:00
9:54 AM,39.9,21.0,47,30.14,10.0,Calm,Calm,-,N/A,,Clear,0,2012-10-10 15:54:00
10:54 AM,48.9,21.0,33,30.10,10.0,Calm,Calm,-,N/A,,Clear,0,2012-10-10 16:54:00
11:54 AM,55.9,18.0,23,30.05,10.0,West,4.6,-,N/A,,Clear,270,2012-10-10 17:54:00
12:54 PM,64.0,14.0,14,30.00,10.0,WSW,12.7,-,N/A,,Clear,250,2012-10-10 18:54:00
1:54 PM,66.0,17.1,15,29.96,10.0,WSW,13.8,19.6,N/A,,Clear,250,2012-10-10 19:54:00
2:54 PM,68.0,17.1,14,29.92,10.0,West,13.8,23.0,N/A,,Partly Cloudy,280,2012-10-10 20:54:00
3:54 PM,68.0,19.9,16,29.91,10.0,West,11.5,21.9,N/A,,Clear,270,2012-10-10 21:54:00
4:54 PM,69.1,19.9,15,29.90,10.0,WSW,16.1,-,N/A,,Clear,250,2012-10-10 22:54:00
5:54 PM,66.0,21.0,18,29.90,10.0,SW,16.1,-,N/A,,Partly Cloudy,220,2012-10-10 23:54:00
6:54 PM,62.1,19.9,20,29.94,10.0,WSW,12.7,-,N/A,,Clear,240,2012-10-11 00:54:00
7:54 PM,55.0,19.9,25,29.99,10.0,West,10.4,-,N/A,,Clear,270,2012-10-11 01:54:00
8:54 PM,55.0,19.9,25,29.98,10.0,WSW,9.2,-,N/A,,Clear,240,2012-10-11 02:54:00
9:54 PM,53.1,21.0,29,29.98,10.0,SW,9.2,-,N/A,,Partly Cloudy,230,2012-10-11 03:54:00
10:54 PM,52.0,21.9,31,29.95,10.0,SW,10.4,-,N/A,,Mostly Cloudy,230,2012-10-11 04:54:00
11:54 PM,52.0,21.9,31,29.93,10.0,WSW,11.5,-,N/A,,Clear,240,2012-10-11 05:54:00